Regional Weather Roundup
Issued by NWS

Home | Current Version | Previous Version | Text Only | Print | Product List | Glossary On
Versions: 1 2 3 4 5 6 7 8 9 10 11 12 13 14 15 16 17 18 19 20 21 22 23 24 25 26 27 28 29 30 31 32 33 34 35 36 37 38 39 40 41 42 43 44 45 46 47 48 49 50
971
ASUS45 KABQ 220610
RWRNM
NEW MEXICO REGIONAL WEATHER ROUNDUP
NATIONAL WEATHER SERVICE ALBUQUERQUE NM
1100 PM MST SUN JAN 21 2018

NOTE: "FAIR" MEANS FEW OR NO CLOUDS BELOW 12,000 FEET AGL WITH NO
       SIGNIFICANT WEATHER OR OBSTRUCTIONS TO VISION.

      THIS PRODUCT IS RELEASED AS TWO VERSIONS.  ONE VERSION NEAR
      THE TOP OF THE HOUR CONTAINING PRELIMINARY DATA FROM ALBUQUERQUE
      AND OTHER STATIONS.  A FINAL VERSION WITH ADDITIONAL DATA IS
      ISSUED ABOUT 10 MINUTES AFTER THE HOUR.

NMZ501-503-504-510>518-220700-
NORTHWEST PLATEAU/NORTHCENTRAL MOUNTAINS

CITY           SKY/WX    TMP DP  RH WIND       PRES   REMARKS
FARMINGTON     FAIR      25  12  58 W18G24    30.11R WCI  11
6HR MIN TEMP:  23; 6HR MAX TEMP:  32;

LOS ALAMOS     FAIR      22   8  53 CALM      29.98R
SANTA FE       FAIR      18  11  74 NW6       29.99R WCI  10
6HR MIN TEMP:  16; 6HR MAX TEMP:  29;

TAOS           MOCLDY    18  15  88 SW10      29.99R WCI   6
ANGEL FIRE     FAIR      16  10  78 W14       29.90R WCI   1

$$
NMZ402-403-502-505>509-220700-
WESTCENTRAL MOUNTAINS/SOUTHWEST MOUNTAINS

CITY           SKY/WX    TMP DP  RH WIND       PRES   REMARKS
GALLUP         FAIR       6   3  87 CALM      30.16R
6HR MIN TEMP:   6; 6HR MAX TEMP:  28;

GRANTS         FAIR      22   8  54 N9        30.15R WCI  11
SILVER CITY    FAIR      22  13  70 NW6       30.16R WCI  14

$$
NMZ407-409-411-412-220700-
SOUTHERN DESERTS

CITY           SKY/WX    TMP DP  RH WIND       PRES   REMARKS
DEMING         FAIR      34  18  52 W8        30.19R WCI  27
6HR MIN TEMP:  31; 6HR MAX TEMP:  45;

LAS CRUCES     FAIR      31  12  46 W6        30.17R WCI  25
HOLLOMAN AFB   FAIR      29   8  39 N9        30.16R WCI  21
ALAMOGORDO     FAIR      32   7  34 N10       30.15R WCI  24
T OR C         FAIR      34  11  38 NW13      30.12S WCI  25
6HR MIN TEMP:  34; 6HR MAX TEMP:  43;


$$
NMZ519>523-220700-
CENTRAL VALLEYS/CENTRAL HIGHLANDS

CITY           SKY/WX    TMP DP  RH WIND       PRES   REMARKS
ALBUQUERQUE    FAIR      31  10  41 N10G30    30.10R WCI  22
6HR MIN TEMP:  31; 6HR MAX TEMP:  38;

MORIARTY ARPT  FAIR      27  13  55 NW38G44   29.99F WCI  10
6HR MIN TEMP:  27; 6HR MAX TEMP:  32;

CLINES CORNERS FAIR      19  10  68 NW23G36   29.95R WCI   2
6HR MIN TEMP:  19; 6HR MAX TEMP:  25; 6HR PCP: TRACE;

BELEN          FAIR      27   9  46 NW9       30.11R WCI  18
6HR MIN TEMP:  27; 6HR MAX TEMP:  36;

SOCORRO        FAIR      32  11  41 N12G17    30.11R WCI  23
6HR MIN TEMP:  32; 6HR MAX TEMP:  38;


$$
NMZ524>526-539-540-220700-
SOUTHCENTRAL MOUNTAINS

CITY           SKY/WX    TMP DP  RH WIND       PRES   REMARKS
RUIDOSO        FAIR      25   9  50 W17G26    30.04R WCI  11

$$
NMZ527>531-220700-
NORTHEAST HIGHLANDS/NORTHEAST PLAINS

CITY           SKY/WX    TMP DP  RH WIND       PRES   REMARKS
LAS VEGAS      FAIR      15  10  80 S3        29.90R
6HR MIN TEMP:  14; 6HR MAX TEMP:  30;

RATON          FAIR      21  12  68 NW5       29.90R WCI  15
6HR MIN TEMP:  19; 6HR MAX TEMP:  26;

CLAYTON        FAIR      24  16  71 NW16G28   29.88R WCI  11
6HR MIN TEMP:  24; 6HR MAX TEMP:  30;


$$
NMZ532>537-220700-
EASTCENTRAL PLAINS

CITY           SKY/WX    TMP DP  RH WIND       PRES   REMARKS
TUCUMCARI      FAIR      30  14  51 N7        29.95S WCI  23
6HR MIN TEMP:  29; 6HR MAX TEMP:  43; 6HR PCP: TRACE;

CANNON AFB     MOCLDY    32  19  59 NW5       30.00R WCI  27
6HR MIN TEMP:  31; 6HR MAX TEMP:  43;

CLOVIS AIRPORT MOCLDY    25  17  72 NW10      29.99R WCI  15

$$
NMZ028-029-538-220700-
SOUTHEAST PLAINS

CITY           SKY/WX    TMP DP  RH WIND       PRES   REMARKS
ROSWELL        FAIR      37  12  35 W7        30.05R WCI  32
6HR MIN TEMP:  34; 6HR MAX TEMP:  47;

ARTESIA        FAIR      34   7  32 NW9       30.07S WCI  26
CARLSBAD       FAIR      37  11  34 E3        30.06R
6HR MIN TEMP:  36; 6HR MAX TEMP:  51;

HOBBS          FAIR      34   9  35 NW12      30.04S WCI  25


$$




USA.gov is the U.S. government's official web portal to all federal, state and local government web resources and services.